Location: Asheville, NC
(35.6000°N, 82.5500°W)
Time: 00:07:48
(UTC-05:00)

NUDT-PHONESAT - Pass Details

Date: 04 January 2018
Orbit: 494 x 513 km, 97.4° (Epoch: 19 January)

Event Time Altitude Azimuth Distance (km) Brightness Sun altitude
Rises 05:43:08 0° 38° (NE) 2,611 ? -23.2°
Reaches altitude 10° 05:46:41 10° 74° (ENE) 1,714 ? -22.5°
Maximum altitude 05:47:50 11° 92° (E) 1,635 ? -22.2°
Drops below altitude 10° 05:48:59 10° 111° (ESE) 1,706 ? -22.0°
Sets 05:52:27 0° 147° (SSE) 2,577 ? -21.3°
